KC3JUG-3 Weather Reports


Display with metric or nautical units.
time (UTC)temp
F
wind
direction
speed
MPH
gust
MPH
rain 1hr
in
rain 24hr
in
rain mn
in
humidity
%
barometer
mb
20260504231602 67 196 1.0 5.0 0.00 0.00 0.00 48 1011.1
20260504231047 67 196 2.0 5.0 0.00 0.00 0.00 47 1011.1
20260504230547 68 183 1.0 5.0 0.00 0.00 0.00 47 1011.1
20260504230150 68 243 1.0 4.0 0.00 0.00 0.00 47 1011.1
20260504230057 68 243 1.0 4.0 0.00 0.00 0.00 47 1011.1
20260504225548 68 244 2.0 3.0 0.00 0.00 0.00 46 1011.0
20260504225047 68 222 1.0 5.0 0.00 0.00 0.00 47 1011.0
20260504224555 68 214 1.0 7.0 0.00 0.00 0.00 46 1011.1
20260504224048 68 215 1.0 7.0 0.00 0.00 0.00 46 1011.1
20260504223548 68 193 2.0 7.0 0.00 0.00 0.00 45 1011.1
20260504223053 69 200 2.0 7.0 0.00 0.00 0.00 45 1011.1
20260504222548 69 195 2.0 7.0 0.00 0.00 0.00 45 1011.1
20260504222047 69 190 2.0 11.0 0.00 0.00 0.00 44 1011.1
20260504221558 69 248 4.0 11.0 0.00 0.00 0.00 45 1011.1
20260504221047 69 192 3.0 7.0 0.00 0.00 0.00 44 1011.2
20260504220548 69 163 2.0 7.0 0.00 0.00 0.00 44 1011.2
20260504220056 69 203 2.0 7.0 0.00 0.00 0.00 44 1011.3
20260504215548 69 229 1.0 8.0 0.00 0.00 0.00 44 1011.2
20260504215046 69 190 2.0 8.0 0.00 0.00 0.00 45 1011.3
20260504214554 69 256 4.0 8.0 0.00 0.00 0.00 45 1011.2
20260504214048 69 178 2.0 8.0 0.00 0.00 0.00 43 1011.2
20260504213547 70 254 3.0 8.0 0.00 0.00 0.00 43 1011.3
20260504213050 70 207 0.0 8.0 0.00 0.00 0.00 44 1011.2
20260504212549 70 0 0.0 7.0 0.00 0.00 0.00 43 1011.2
20260504212047 70 208 0.0 4.0 0.00 0.00 0.00 44 1011.3
20260504211553 70 0 0.0 7.0 0.00 0.00 0.00 43 1011.2
20260504211049 70 0 2.0 7.0 0.00 0.00 0.00 44 1011.2
20260504210547 70 255 0.0 2.0 0.00 0.00 0.00 45 1011.2
20260504205046 70 261 3.0 7.0 0.00 0.00 0.00 44 1011.2
20260504204601 70 194 3.0 6.0 0.00 0.00 0.00 43 1011.2
20260504204048 70 198 2.0 12.0 0.00 0.00 0.00 43 1011.3
20260504203548 70 241 3.0 12.0 0.00 0.00 0.00 44 1011.3
20260504203050 70 244 4.0 10.0 0.00 0.00 0.00 44 1011.3
20260504202548 71 244 3.0 8.0 0.00 0.00 0.00 43 1011.4
20260504202048 71 197 4.0 10.0 0.00 0.00 0.00 45 1011.4
20260504201550 71 197 4.0 10.0 0.00 0.00 0.00 46 1011.5
20260504201048 71 257 4.0 10.0 0.00 0.00 0.00 45 1011.5
20260504200546 71 255 3.0 8.0 0.00 0.00 0.00 42 1011.5
20260504200051 71 213 3.0 12.0 0.00 0.00 0.00 41 1011.6
20260504195545 70 257 4.0 16.0 0.00 0.00 0.00 44 1011.6
20260504195047 70 209 5.0 16.0 0.00 0.00 0.00 41 1011.7
20260504194605 70 261 4.0 12.0 0.00 0.00 0.00 41 1011.7
20260504194047 70 255 6.0 12.0 0.00 0.00 0.00 42 1011.8
20260504193547 71 201 4.0 9.0 0.00 0.00 0.00 40 1011.7
20260504193052 71 264 2.0 11.0 0.00 0.00 0.00 45 1011.8
20260504192548 70 205 5.0 12.0 0.00 0.00 0.00 41 1011.9
20260504192048 70 197 5.0 12.0 0.00 0.00 0.00 41 1012.0
20260504191552 70 254 4.0 11.0 0.00 0.00 0.00 43 1012.0
20260504191048 70 266 5.0 12.0 0.00 0.00 0.00 44 1012.2
20260504190547 70 244 3.0 12.0 0.00 0.00 0.00 44 1012.3
20260504190117 69 205 5.0 13.0 0.00 0.00 0.00 42 1012.4
20260504185546 69 276 4.0 13.0 0.00 0.00 0.00 44 1012.2
20260504185045 69 239 5.0 13.0 0.00 0.00 0.00 42 1012.4
20260504184557 69 261 3.0 8.0 0.00 0.00 0.00 42 1012.3
20260504184047 69 225 3.0 8.0 0.00 0.00 0.00 42 1012.4
20260504183547 69 156 2.0 9.0 0.00 0.00 0.00 42 1012.5
20260504183054 69 226 3.0 9.0 0.00 0.00 0.00 46 1012.5
20260504182546 69 262 4.0 9.0 0.00 0.00 0.00 44 1012.6
20260504182047 69 234 1.0 9.0 0.00 0.00 0.00 46 1012.6
20260504181603 69 169 2.0 7.0 0.00 0.00 0.00 44 1012.8
20260504181047 68 252 3.0 9.0 0.00 0.00 0.00 44 1012.8
20260504180547 68 261 2.0 11.0 0.00 0.00 0.00 45 1012.8
20260504180208 67 283 2.0 11.0 0.00 0.00 0.00 45 1013.0
20260504175547 67 256 3.0 13.0 0.00 0.00 0.00 45 1013.1
20260504175052 67 240 4.0 13.0 0.00 0.00 0.00 44 1013.3
20260504174555 67 206 3.0 11.0 0.00 0.00 0.00 45 1013.2
20260504174049 67 211 3.0 11.0 0.00 0.00 0.00 47 1013.2
20260504173545 67 246 3.0 9.0 0.00 0.00 0.00 45 1013.3
20260504173059 66 222 4.0 9.0 0.00 0.00 0.00 45 1013.4
20260504172545 66 257 2.0 8.0 0.00 0.00 0.00 43 1013.5
20260504172045 66 296 3.0 11.0 0.00 0.00 0.00 45 1013.5
20260504171558 66 288 3.0 11.0 0.00 0.00 0.00 46 1013.7
20260504171045 66 273 3.0 10.0 0.00 0.00 0.00 45 1013.9
20260504170545 65 237 3.0 10.0 0.00 0.00 0.00 44 1013.7
20260504151048 61 196 4.0 12.0 0.00 0.00 0.00 44 1015.2
20260504150548 61 251 4.0 7.0 0.00 0.00 0.00 45 1015.2
20260504141047 58 251 2.0 7.0 0.00 0.00 0.00 54 1015.3
20260504140547 58 194 2.0 5.0 0.00 0.00 0.00 54 1015.3
20260504140112 57 207 2.0 8.0 0.00 0.00 0.00 54 1015.2
20260504130546 55 200 2.0 6.0 0.00 0.00 0.00 60 1015.5
20260504120112 51 192 3.0 8.0 0.00 0.00 0.00 62 1015.4
20260504110545 48 200 3.0 6.0 0.00 0.00 0.00 58 1015.7
20260504100549 50 194 3.0 5.0 0.00 0.00 0.00 50 1015.6
20260504081553 51 236 1.0 5.0 0.00 0.00 0.00 48 1015.8
20260504081047 51 234 2.0 5.0 0.00 0.00 0.00 48 1015.9
20260504080547 51 223 2.0 5.0 0.00 0.00 0.00 48 1015.9
20260504050547 54 238 3.0 8.0 0.00 0.00 0.00 46 1016.0
20260504050117 53 267 3.0 10.0 0.00 0.00 0.00 45 1016.0
20260504045547 54 251 3.0 10.0 0.00 0.00 0.00 45 1016.0
20260504045047 54 245 4.0 10.0 0.00 0.00 0.00 45 1016.1
20260504044545 53 238 3.0 8.0 0.00 0.00 0.00 45 1016.0
20260504044048 53 251 4.0 8.0 0.00 0.00 0.00 46 1016.0
20260504043548 53 232 3.0 8.0 0.00 0.00 0.00 46 1015.9
20260504043047 53 244 3.0 8.0 0.00 0.00 0.00 46 1015.9
20260504042547 53 250 3.0 8.0 0.00 0.00 0.00 46 1015.8
20260504042047 53 249 3.0 8.0 0.00 0.00 0.00 46 1015.8
20260504041548 53 250 3.0 8.0 0.00 0.00 0.00 46 1015.8
20260504041047 53 242 3.0 7.0 0.00 0.00 0.00 46 1015.7
20260504040547 53 243 3.0 8.0 0.00 0.00 0.00 46 1015.7
20260504035547 53 244 2.0 8.0 0.00 0.00 0.00 47 1015.7
20260504035050 53 256 3.0 9.0 0.00 0.00 0.00 47 1015.7
20260504034552 53 253 3.0 9.0 0.00 0.00 0.00 46 1015.7
20260504034047 53 252 3.0 9.0 0.00 0.00 0.00 46 1015.7
20260504033548 53 234 2.0 7.0 0.00 0.00 0.00 46 1015.7
20260504033057 53 255 2.0 6.0 0.00 0.00 0.00 46 1015.6
20260504032548 53 253 2.0 6.0 0.00 0.00 0.00 47 1015.6
20260504032048 53 252 2.0 8.0 0.00 0.00 0.00 46 1015.6
20260504031619 53 254 3.0 8.0 0.00 0.00 0.00 46 1015.6
20260504031046 53 255 2.0 6.0 0.00 0.00 0.00 46 1015.6
20260504030547 53 239 2.0 5.0 0.00 0.00 0.00 47 1015.4
20260504030053 53 248 2.0 7.0 0.00 0.00 0.00 47 1015.5
20260504025547 53 258 2.0 7.0 0.00 0.00 0.00 46 1015.4
20260504025049 53 262 3.0 7.0 0.00 0.00 0.00 46 1015.4
20260504024553 53 246 2.0 5.0 0.00 0.00 0.00 47 1015.4
20260504024048 53 240 2.0 7.0 0.00 0.00 0.00 47 1015.4
20260504023546 53 250 2.0 7.0 0.00 0.00 0.00 46 1015.5
20260504023049 53 250 2.0 8.0 0.00 0.00 0.00 46 1015.6
20260504022547 53 250 2.0 8.0 0.00 0.00 0.00 46 1015.6
20260504022047 53 251 2.0 8.0 0.00 0.00 0.00 47 1015.7
20260504021602 53 249 2.0 8.0 0.00 0.00 0.00 47 1015.5
20260504021047 53 265 2.0 8.0 0.00 0.00 0.00 48 1015.4
20260504020547 52 248 3.0 8.0 0.00 0.00 0.00 48 1015.6
20260504020052 52 250 2.0 5.0 0.00 0.00 0.00 49 1015.6
20260504015547 51 258 2.0 5.0 0.00 0.00 0.00 51 1015.6
20260504015047 50 252 1.0 4.0 0.00 0.00 0.00 53 1015.5
20260504014553 50 270 0.0 3.0 0.00 0.00 0.00 55 1015.5
20260504014046 50 0 0.0 2.0 0.00 0.00 0.00 55 1015.4
20260504013546 51 0 0.0 3.0 0.00 0.00 0.00 55 1015.3
20260504013051 51 0 0.0 4.0 0.00 0.00 0.00 53 1015.2
20260504012549 51 254 2.0 4.0 0.00 0.00 0.00 50 1015.3
20260504012048 51 248 2.0 4.0 0.00 0.00 0.00 52 1015.3
20260504011553 50 246 1.0 4.0 0.00 0.00 0.00 54 1015.2
20260504011048 50 0 0.0 1.0 0.00 0.00 0.00 55 1015.2
20260504010547 51 0 0.0 3.0 0.00 0.00 0.00 55 1015.2
20260504010057 51 0 0.0 3.0 0.00 0.00 0.00 53 1015.0
20260504005547 51 0 0.0 4.0 0.00 0.00 0.00 54 1015.2
20260504005047 51 0 0.0 4.0 0.00 0.00 0.00 53 1015.1
20260504004555 51 0 1.0 5.0 0.00 0.00 0.00 52 1015.1
20260504004047 51 236 0.0 5.0 0.00 0.00 0.00 52 1015.1
20260504003547 52 236 0.0 5.0 0.00 0.00 0.00 54 1015.0
20260504003047 52 0 0.0 3.0 0.00 0.00 0.00 53 1014.9
20260504002547 53 246 0.0 3.0 0.00 0.00 0.00 52 1014.9
20260504002047 53 246 0.0 3.0 0.00 0.00 0.00 51 1014.8
20260504001608 53 246 1.0 4.0 0.00 0.00 0.00 48 1014.6
20260504001048 54 246 1.0 4.0 0.00 0.00 0.00 48 1014.6
20260504000548 54 246 1.0 4.0 0.00 0.00 0.00 47 1014.5
20260504000058 54 234 1.0 4.0 0.00 0.00 0.00 46 1014.4
20260503235548 55 257 2.0 4.0 0.00 0.00 0.00 45 1014.5
20260503235050 55 258 1.0 3.0 0.00 0.00 0.00 45 1014.3
20260503234547 55 258 1.0 6.0 0.00 0.00 0.00 45 1014.3
20260503234047 55 258 2.0 6.0 0.00 0.00 0.00 45 1014.3
20260503233547 56 256 2.0 6.0 0.00 0.00 0.00 44 1014.2
20260503233050 56 247 2.0 7.0 0.00 0.00 0.00 43 1014.2
20260503232548 56 269 3.0 7.0 0.00 0.00 0.00 42 1014.2
20260503232048 56 274 3.0 7.0 0.00 0.00 0.00 43 1014.3